TAM3223 SBCF-SBVT

Flight info

Callsign TAM3223
Flight time 0h 44m
Altitude 27000
Route EVPAD UZ35 KIGOK
Aircraft A320/M-SDE3FGHIRWY/LB1

Departure

Time 2026-05-01 13:19
Airport Tancredo Neves International Airport (SBCF)

Arrival

Time 2026-05-01 14:03
Airport Eurico de Aguiar Salles International Airport (SBVT)
Time Latitude Longitude Altitude Speed Heading
2026-05-01 12:58 -19.63351 -43.96371 2816 ft 0 kts 39°
2026-05-01 13:08 -19.63358 -43.96377 2789 ft 4 kts 33°
2026-05-01 13:08 -19.63381 -43.96387 2789 ft 4 kts 349°
2026-05-01 13:09 -19.63399 -43.96375 2792 ft 2 kts 297°
2026-05-01 13:09 -19.63401 -43.96370 2792 ft 0 kts 297°
2026-05-01 13:11 -19.63401 -43.96371 2792 ft 1 kts 297°
2026-05-01 13:11 -19.63388 -43.96396 2793 ft 7 kts 302°
2026-05-01 13:12 -19.63346 -43.96448 2791 ft 12 kts 317°
2026-05-01 13:12 -19.63280 -43.96509 2791 ft 12 kts 319°
2026-05-01 13:12 -19.63219 -43.96564 2792 ft 10 kts 319°
2026-05-01 13:12 -19.63190 -43.96617 2791 ft 8 kts 249°
2026-05-01 13:13 -19.63221 -43.96657 2791 ft 7 kts 227°
2026-05-01 13:13 -19.63256 -43.96697 2791 ft 8 kts 227°
2026-05-01 13:13 -19.63259 -43.96749 2793 ft 8 kts 307°
2026-05-01 13:13 -19.63214 -43.96793 2791 ft 11 kts 318°
2026-05-01 13:14 -19.63138 -43.96864 2792 ft 18 kts 319°
2026-05-01 13:14 -19.63032 -43.96961 2792 ft 21 kts 319°
2026-05-01 13:14 -19.62921 -43.97064 2792 ft 22 kts 319°
2026-05-01 13:14 -19.62805 -43.97172 2792 ft 23 kts 319°
2026-05-01 13:15 -19.62684 -43.97285 2792 ft 24 kts 320°
2026-05-01 13:15 -19.62556 -43.97403 2791 ft 25 kts 318°
2026-05-01 13:15 -19.62424 -43.97525 2792 ft 26 kts 319°
2026-05-01 13:15 -19.62310 -43.97630 2792 ft 15 kts 319°
2026-05-01 13:16 -19.62242 -43.97697 2792 ft 11 kts 308°
2026-05-01 13:16 -19.62256 -43.97761 2792 ft 8 kts 229°
2026-05-01 13:16 -19.62260 -43.97766 2792 ft 0 kts 227°
2026-05-01 13:17 -19.62291 -43.97781 2792 ft 7 kts 191°
2026-05-01 13:17 -19.62336 -43.97790 2791 ft 6 kts 191°
2026-05-01 13:18 -19.62408 -43.97767 2790 ft 11 kts 137°
2026-05-01 13:18 -19.62586 -43.97600 2790 ft 68 kts 139°
2026-05-01 13:18 -19.63108 -43.97118 2792 ft 129 kts 139°
2026-05-01 13:18 -19.63910 -43.96374 2806 ft 174 kts 138°
2026-05-01 13:19 -19.64843 -43.95514 3322 ft 178 kts 137°
2026-05-01 13:19 -19.65781 -43.94649 4034 ft 180 kts 136°
2026-05-01 13:19 -19.67865 -43.92715 4603 ft 223 kts 136°
2026-05-01 13:20 -19.69094 -43.91571 4879 ft 247 kts 136°
2026-05-01 13:20 -19.70417 -43.90297 5362 ft 263 kts 129°
2026-05-01 13:20 -19.71332 -43.88625 6163 ft 264 kts 107°
2026-05-01 13:21 -19.72375 -43.84859 7793 ft 270 kts 105°
2026-05-01 13:21 -19.72898 -43.82921 8520 ft 276 kts 104°
2026-05-01 13:21 -19.73429 -43.80950 9253 ft 280 kts 104°
2026-05-01 13:21 -19.73968 -43.78947 9946 ft 285 kts 104°
2026-05-01 13:22 -19.74520 -43.76901 10523 ft 293 kts 105°
2026-05-01 13:22 -19.75104 -43.74738 10675 ft 316 kts 105°
2026-05-01 13:22 -19.75730 -43.72428 10953 ft 332 kts 104°
2026-05-01 13:22 -19.76375 -43.70057 11508 ft 336 kts 105°
2026-05-01 13:23 -19.77028 -43.67660 12119 ft 340 kts 105°
2026-05-01 13:23 -19.77690 -43.65234 12722 ft 344 kts 105°
2026-05-01 13:23 -19.78355 -43.62779 13312 ft 348 kts 105°
2026-05-01 13:23 -19.79027 -43.60298 13904 ft 352 kts 105°
2026-05-01 13:24 -19.79707 -43.57784 14397 ft 356 kts 105°
2026-05-01 13:24 -19.80395 -43.55240 14905 ft 360 kts 105°
2026-05-01 13:24 -19.81088 -43.52673 15416 ft 363 kts 105°
2026-05-01 13:25 -19.82489 -43.47468 16433 ft 370 kts 105°
2026-05-01 13:25 -19.83200 -43.44828 16921 ft 374 kts 105°
2026-05-01 13:25 -19.83917 -43.42159 17413 ft 377 kts 106°
2026-05-01 13:25 -19.84642 -43.39465 17881 ft 381 kts 106°
2026-05-01 13:26 -19.85372 -43.36746 18370 ft 385 kts 106°
2026-05-01 13:26 -19.86110 -43.33999 18802 ft 388 kts 106°
2026-05-01 13:26 -19.86855 -43.31232 19222 ft 391 kts 106°
2026-05-01 13:26 -19.87605 -43.28445 19655 ft 394 kts 106°
2026-05-01 13:27 -19.88360 -43.25632 20085 ft 397 kts 106°
2026-05-01 13:27 -19.89118 -43.22802 20517 ft 400 kts 106°
2026-05-01 13:27 -19.90649 -43.17075 21395 ft 406 kts 106°
2026-05-01 13:28 -19.92195 -43.11297 22224 ft 413 kts 106°
2026-05-01 13:28 -19.92986 -43.08358 22676 ft 415 kts 106°
2026-05-01 13:29 -19.94580 -43.02410 23503 ft 422 kts 106°
2026-05-01 13:29 -19.95955 -42.96315 24225 ft 428 kts 96°
2026-05-01 13:30 -19.97226 -42.83598 25560 ft 437 kts 96°
2026-05-01 13:31 -19.97887 -42.77146 26241 ft 441 kts 96°
2026-05-01 13:31 -19.98872 -42.67367 27129 ft 446 kts 96°
2026-05-01 13:32 -19.99507 -42.60956 27183 ft 425 kts 96°
2026-05-01 13:33 -20.00443 -42.51653 27187 ft 421 kts 97°
2026-05-01 13:33 -20.01308 -42.45498 27185 ft 420 kts 100°
2026-05-01 13:34 -20.02307 -42.39374 27184 ft 420 kts 101°
2026-05-01 13:34 -20.03265 -42.33282 27185 ft 420 kts 100°
2026-05-01 13:35 -20.04189 -42.27149 27191 ft 420 kts 99°
2026-05-01 13:35 -20.04638 -42.24086 27192 ft 419 kts 99°
2026-05-01 13:35 -20.05556 -42.17967 27196 ft 419 kts 101°
2026-05-01 13:36 -20.06074 -42.14919 27194 ft 419 kts 102°
2026-05-01 13:36 -20.06628 -42.11877 27194 ft 419 kts 102°
2026-05-01 13:36 -20.07770 -42.05795 27189 ft 419 kts 102°
2026-05-01 13:37 -20.08334 -42.02749 27195 ft 419 kts 102°
2026-05-01 13:37 -20.08887 -41.99699 27195 ft 419 kts 102°
2026-05-01 13:37 -20.09431 -41.96653 27197 ft 419 kts 102°
2026-05-01 13:37 -20.09972 -41.93608 27199 ft 419 kts 102°
2026-05-01 13:38 -20.11051 -41.87513 27199 ft 419 kts 102°
2026-05-01 13:38 -20.11590 -41.84469 27196 ft 419 kts 102°
2026-05-01 13:38 -20.12130 -41.81425 27199 ft 419 kts 102°
2026-05-01 13:39 -20.12671 -41.78381 27115 ft 416 kts 101°
2026-05-01 13:39 -20.13206 -41.75365 26672 ft 413 kts 102°
2026-05-01 13:39 -20.13734 -41.72371 26207 ft 411 kts 101°
2026-05-01 13:39 -20.14260 -41.69384 25730 ft 409 kts 101°
2026-05-01 13:40 -20.14782 -41.66413 25235 ft 408 kts 101°
2026-05-01 13:40 -20.15306 -41.63446 24732 ft 407 kts 101°
2026-05-01 13:40 -20.15823 -41.60525 24233 ft 407 kts 101°
2026-05-01 13:40 -20.16346 -41.57566 23715 ft 407 kts 101°
2026-05-01 13:41 -20.16866 -41.54623 23240 ft 403 kts 101°
2026-05-01 13:41 -20.17377 -41.51720 22627 ft 393 kts 101°
2026-05-01 13:41 -20.17869 -41.48909 22164 ft 379 kts 101°
2026-05-01 13:41 -20.18345 -41.46195 21701 ft 369 kts 101°
2026-05-01 13:42 -20.18821 -41.43513 21252 ft 369 kts 101°
2026-05-01 13:42 -20.19287 -41.40847 20986 ft 365 kts 101°
2026-05-01 13:42 -20.19748 -41.38193 20754 ft 363 kts 101°
2026-05-01 13:42 -20.20204 -41.35557 20519 ft 361 kts 101°
2026-05-01 13:43 -20.20661 -41.32930 20284 ft 361 kts 101°
2026-05-01 13:43 -20.21119 -41.30303 20054 ft 360 kts 101°
2026-05-01 13:43 -20.21577 -41.27688 19823 ft 358 kts 101°
2026-05-01 13:43 -20.22032 -41.25088 19595 ft 357 kts 101°
2026-05-01 13:44 -20.22486 -41.22489 19372 ft 356 kts 101°
2026-05-01 13:44 -20.22938 -41.19905 19148 ft 354 kts 101°
2026-05-01 13:44 -20.23389 -41.17329 18927 ft 353 kts 101°
2026-05-01 13:44 -20.23837 -41.14762 18703 ft 353 kts 101°
2026-05-01 13:45 -20.24282 -41.12192 18482 ft 351 kts 101°
2026-05-01 13:45 -20.24716 -41.09678 18234 ft 349 kts 101°
2026-05-01 13:45 -20.25152 -41.07141 17980 ft 348 kts 101°
2026-05-01 13:45 -20.25588 -41.04607 17729 ft 347 kts 101°
2026-05-01 13:46 -20.26021 -41.02092 17480 ft 344 kts 101°
2026-05-01 13:46 -20.26454 -40.99593 17233 ft 342 kts 100°
2026-05-01 13:46 -20.26885 -40.97102 16988 ft 341 kts 100°
2026-05-01 13:46 -20.27311 -40.94626 16744 ft 339 kts 100°
2026-05-01 13:47 -20.27735 -40.92161 16507 ft 337 kts 100°
2026-05-01 13:47 -20.28156 -40.89711 16264 ft 336 kts 100°
2026-05-01 13:47 -20.28578 -40.87268 16024 ft 334 kts 100°
2026-05-01 13:47 -20.28999 -40.84838 15793 ft 332 kts 100°
2026-05-01 13:48 -20.29413 -40.82424 15557 ft 331 kts 100°
2026-05-01 13:48 -20.29685 -40.80832 15403 ft 330 kts 99°
2026-05-01 13:48 -20.30231 -40.77626 15095 ft 327 kts 100°
2026-05-01 13:48 -20.30501 -40.76049 14942 ft 326 kts 99°
2026-05-01 13:49 -20.30906 -40.73679 14707 ft 325 kts 100°
2026-05-01 13:49 -20.31311 -40.71316 14484 ft 323 kts 99°
2026-05-01 13:49 -20.31716 -40.68969 14260 ft 322 kts 99°
2026-05-01 13:49 -20.32116 -40.66627 14037 ft 320 kts 99°
2026-05-01 13:50 -20.32509 -40.64299 13781 ft 318 kts 99°
2026-05-01 13:50 -20.32900 -40.61987 13526 ft 316 kts 99°
2026-05-01 13:50 -20.33292 -40.59691 13275 ft 314 kts 100°
2026-05-01 13:50 -20.33682 -40.57407 13021 ft 312 kts 100°
2026-05-01 13:51 -20.34067 -40.55142 12778 ft 309 kts 99°
2026-05-01 13:51 -20.34440 -40.52928 12535 ft 307 kts 98°
2026-05-01 13:51 -20.34435 -40.50674 12289 ft 305 kts 77°
2026-05-01 13:51 -20.33625 -40.48611 12047 ft 303 kts 55°
2026-05-01 13:52 -20.32132 -40.47048 11805 ft 304 kts 33°
2026-05-01 13:52 -20.30176 -40.46200 11566 ft 307 kts 14°
2026-05-01 13:52 -20.28097 -40.45683 11327 ft 307 kts 14°
2026-05-01 13:52 -20.26024 -40.45175 11095 ft 303 kts 14°
2026-05-01 13:53 -20.23982 -40.44675 10862 ft 300 kts 15°
2026-05-01 13:53 -20.19930 -40.43672 10402 ft 298 kts 15°
2026-05-01 13:53 -20.17916 -40.43173 10174 ft 297 kts 15°
2026-05-01 13:54 -20.15905 -40.42672 9912 ft 296 kts 15°
2026-05-01 13:54 -20.13903 -40.42171 9532 ft 295 kts 15°
2026-05-01 13:54 -20.11954 -40.41543 9121 ft 292 kts 27°
2026-05-01 13:54 -20.10278 -40.40368 8718 ft 288 kts 45°
2026-05-01 13:55 -20.09029 -40.38727 8301 ft 284 kts 61°
2026-05-01 13:55 -20.08280 -40.36790 7878 ft 283 kts 73°
2026-05-01 13:55 -20.07693 -40.34820 7460 ft 274 kts 73°
2026-05-01 13:55 -20.07123 -40.32930 7058 ft 263 kts 73°
2026-05-01 13:56 -20.06574 -40.31113 6660 ft 253 kts 72°
2026-05-01 13:56 -20.06047 -40.29373 6300 ft 241 kts 72°
2026-05-01 13:56 -20.05548 -40.27725 6250 ft 227 kts 73°
2026-05-01 13:56 -20.05075 -40.26165 6158 ft 217 kts 73°
2026-05-01 13:57 -20.04622 -40.24671 6073 ft 214 kts 73°
2026-05-01 13:57 -20.04243 -40.23146 5885 ft 215 kts 83°
2026-05-01 13:57 -20.04284 -40.21553 5482 ft 216 kts 101°
2026-05-01 13:57 -20.04766 -40.20037 5122 ft 219 kts 117°
2026-05-01 13:58 -20.05657 -40.18710 4752 ft 223 kts 133°
2026-05-01 13:58 -20.06901 -40.17703 4312 ft 228 kts 150°
2026-05-01 13:58 -20.08397 -40.17150 3863 ft 228 kts 168°
2026-05-01 13:58 -20.09967 -40.17108 3482 ft 225 kts 186°
2026-05-01 13:59 -20.11455 -40.17566 3106 ft 222 kts 204°
2026-05-01 13:59 -20.12733 -40.18456 2742 ft 219 kts 221°
2026-05-01 13:59 -20.13693 -40.19689 2391 ft 215 kts 239°
2026-05-01 13:59 -20.14408 -40.21065 2053 ft 209 kts 240°
2026-05-01 14:00 -20.15088 -40.22361 1939 ft 192 kts 240°
2026-05-01 14:00 -20.15714 -40.23547 1839 ft 174 kts 240°
2026-05-01 14:00 -20.16270 -40.24601 1807 ft 157 kts 240°
2026-05-01 14:00 -20.16791 -40.25587 1728 ft 151 kts 240°
2026-05-01 14:01 -20.17306 -40.26555 1667 ft 151 kts 237°
2026-05-01 14:01 -20.17966 -40.27423 1466 ft 150 kts 221°
2026-05-01 14:01 -20.18784 -40.28069 1264 ft 147 kts 207°
2026-05-01 14:01 -20.19722 -40.28489 1066 ft 146 kts 195°
2026-05-01 14:02 -20.20720 -40.28657 870 ft 145 kts 181°
2026-05-01 14:02 -20.21731 -40.28570 674 ft 143 kts 170°
2026-05-01 14:02 -20.22712 -40.28420 463 ft 142 kts 170°
2026-05-01 14:02 -20.23685 -40.28277 270 ft 140 kts 172°
2026-05-01 14:03 -20.24621 -40.28142 72 ft 136 kts 169°
2026-05-01 14:03 -20.25499 -40.28009 36 ft 110 kts 172°
2026-05-01 14:03 -20.26095 -40.27920 37 ft 61 kts 172°
2026-05-01 14:03 -20.26327 -40.27887 37 ft 30 kts 172°
2026-05-01 14:04 -20.26492 -40.27882 36 ft 23 kts 185°
2026-05-01 14:04 -20.26594 -40.27903 38 ft 14 kts 205°
2026-05-01 14:04 -20.26611 -40.27962 38 ft 6 kts 260°
2026-05-01 14:04 -20.26595 -40.28014 35 ft 9 kts 308°
2026-05-01 14:05 -20.26541 -40.28034 35 ft 8 kts 353°
2026-05-01 14:05 -20.26489 -40.28043 35 ft 7 kts 342°
2026-05-01 14:05 -20.26481 -40.28080 35 ft 5 kts 254°
2026-05-01 14:05 -20.26488 -40.28114 35 ft 4 kts 259°
2026-05-01 14:06 -20.26492 -40.28142 35 ft 3 kts 261°
2026-05-01 14:06 -20.26496 -40.28164 35 ft 3 kts 260°
2026-05-01 14:06 -20.26497 -40.28176 35 ft 0 kts 261°
2026-05-01 14:06 -20.26498 -40.28178 35 ft 0 kts 261°